GPMAT EGHH-LSGG

Flight info

Callsign GPMAT
Flight time N/A
Altitude 31000
Route SAM Y8 GWC DCT BENBO UL612 VEULE DCT PEKIM DCT PILUL DCT PIMUP DCT PIXIS DCT PIBAT DCT LUSAR Z64 LIRKO
Aircraft C750/M-SBDE3FGHRWXY/S

Departure

Time 2026-04-30 19:12
Airport Bournemouth Airport (EGHH)

Arrival

Time N/A
Airport Geneva International Airport (LSGG)
Time Latitude Longitude Altitude Speed Heading
2026-04-30 18:36 51.28085 -0.77728 240 ft 0 kts 303°
2026-04-30 18:41 50.78597 -1.84005 40 ft 0 kts 323°
2026-04-30 19:05 50.78599 -1.84007 40 ft 0 kts 323°
2026-04-30 19:06 50.78617 -1.84084 40 ft 1 kts 256°
2026-04-30 19:06 50.78594 -1.84120 40 ft 8 kts 179°
2026-04-30 19:06 50.78471 -1.84084 40 ft 9 kts 216°
2026-04-30 19:07 50.78363 -1.84298 41 ft 11 kts 237°
2026-04-30 19:07 50.78328 -1.84419 41 ft 13 kts 246°
2026-04-30 19:08 50.78200 -1.84654 41 ft 17 kts 212°
2026-04-30 19:08 50.78124 -1.84881 42 ft 8 kts 250°
2026-04-30 19:08 50.78073 -1.84922 42 ft 6 kts 201°
2026-04-30 19:09 50.77998 -1.84968 42 ft 0 kts 199°
2026-04-30 19:10 50.77950 -1.84996 42 ft 14 kts 201°
2026-04-30 19:11 50.77893 -1.85022 42 ft 4 kts 163°
2026-04-30 19:11 50.77888 -1.84973 42 ft 15 kts 76°
2026-04-30 19:11 50.78004 -1.84275 41 ft 116 kts 76°
2026-04-30 19:12 50.78276 -1.82635 182 ft 183 kts 77°
2026-04-30 19:12 50.78639 -1.80583 1053 ft 208 kts 78°
2026-04-30 19:12 50.79146 -1.78442 2189 ft 212 kts 73°
2026-04-30 19:13 50.80320 -1.73249 2769 ft 277 kts 75°
2026-04-30 19:13 50.81501 -1.67765 3693 ft 254 kts 75°
2026-04-30 19:13 50.82071 -1.65136 4183 ft 254 kts 73°
2026-04-30 19:14 50.82861 -1.62631 4671 ft 257 kts 64°
2026-04-30 19:14 50.83834 -1.60248 5160 ft 259 kts 56°
2026-04-30 19:14 50.84962 -1.58058 5651 ft 258 kts 54°
2026-04-30 19:14 50.86010 -1.55760 5962 ft 264 kts 59°
2026-04-30 19:15 50.87091 -1.53325 6008 ft 281 kts 57°